Погода в Ловчикове

Россия / Орловская область     52°30′04″N   36°13′57″E
темп.,
°C
ветер,
м/с
пор.,
м/с
влажн.,
%
обл.,
%
осадки,
мм/ч
давл.,
гПа
погр.,
м
8 марта, пн
пн800:00−4з51184100 1.0 1004302
03:00−5зюз51182100 1.0 1004237
06:00−6з5138598 0.0 1003348
09:00−6з6139375 0.0 1004518
12:00−3зсз698529 0.0 1006984
15:00−3зсз588261 0.1 1006966
18:00−6зсз338863 0.1 100829
21:00−8зсз239468 0.1 101048
9 марта, вт
вт900:00−9ссв239494 0.2 101031
03:00−13ссз339094 0.2 101227
06:00−13ссз339594 0.0 101344
09:00−11с479494 0.1 1016282
12:00−10ссз479091 0.0 1018499
15:00−9ссз478694 0.1 1019670
18:00−12сз239295 0.0 102021
21:00−13сз239589 0.1 102243
10 марта, ср
ср1000:00−16ссз339668 0.0 102427
03:00−18ссз239434 0.0 102521
06:00−20сз22970 0.0 102720
09:00−17сз22941 0.0 102872
12:00−13ссз228955 0.0 1028270
15:00−11с119077 0.2 1028266
18:00−12всв3495100 0.4 1028218
21:00−15всв4795100 0.8 1030240
11 марта, чт
чт1100:00−19в3691100 0.1 1031151
03:00−23в348971 0.1 103346
06:00−24вюв34870 0.0 103331
09:00−21вюв348619 0.0 1034119
12:00−16вюв34816 0.0 1034241
15:00−14юв34823 0.0 1034265
18:00−17вюв34890 0.0 103341
21:00−20юв34880 0.0 103344
12 марта, пт
пт1200:00−20юв45880 0.0 103466
03:00−20ююв47870 0.0 103388
06:00−19ююв48860 0.0 1032113
09:00−14ююв612810 0.0 1032273
12:00−10ююв6108231 0.0 1031397
15:00−8ююв7118166 0.0 1030510
18:00−9ююв71379100 0.0 1028426
21:00−9ю71670100 0.0 1027492